FW0917 Weather Reports


Display with metric or nautical units.
time (UTC)temp
F
wind
direction
speed
MPH
gust
MPH
rain 1hr
in
rain 24hr
in
rain mn
in
humidity
%
barometer
mb
20260507000212 58 201 5.0 14.0 0.01 0.42 0.42 93 1004.2
20260506235704 58 206 5.0 14.0 0.01 0.42 0.42 93 1004.3
20260506235203 58 224 5.0 13.0 0.00 0.41 0.41 93 1004.2
20260506234704 58 219 5.0 8.0 0.00 0.41 0.41 93 1004.2
20260506234203 58 186 6.0 12.0 0.01 0.41 0.41 93 1004.2
20260506233703 58 203 2.0 8.0 0.02 0.41 0.41 93 1004.0
20260506233204 58 202 3.0 9.0 0.04 0.41 0.41 93 1003.9
20260506232704 58 203 3.0 10.0 0.05 0.41 0.41 93 1004.0
20260506232203 58 216 6.0 13.0 0.07 0.41 0.41 93 1003.9
20260506231204 58 213 4.0 10.0 0.09 0.41 0.41 93 1003.9
20260506230704 58 195 3.0 8.0 0.10 0.41 0.41 93 1003.8
20260506230203 58 214 2.0 9.0 0.11 0.41 0.41 93 1003.9
20260506225705 58 210 3.0 9.0 0.12 0.41 0.41 93 1003.8
20260506224703 58 210 3.0 9.0 0.14 0.41 0.41 93 1003.9
20260506224204 58 186 5.0 10.0 0.13 0.40 0.40 93 1004.1
20260506223704 58 198 2.0 5.0 0.12 0.39 0.39 93 1003.9
20260506223203 58 281 3.0 14.0 0.11 0.37 0.37 93 1003.9
20260506222704 58 210 4.0 12.0 0.10 0.36 0.36 93 1004.0
20260506222203 58 225 6.0 12.0 0.08 0.34 0.34 92 1004.1
20260506220205 58 230 3.0 14.0 0.07 0.30 0.30 92 1004.2
20260506215704 58 211 5.0 13.0 0.07 0.29 0.29 92 1004.3
20260506215204 58 198 3.0 12.0 0.07 0.28 0.28 92 1004.3
20260506214704 58 204 7.0 13.0 0.08 0.27 0.27 92 1004.2
20260506214204 58 222 5.0 12.0 0.09 0.27 0.27 92 1004.2
20260506213704 58 197 5.0 12.0 0.09 0.27 0.27 92 1004.1
20260506213203 58 209 5.0 12.0 0.09 0.26 0.26 92 1004.2
20260506212703 58 190 4.0 12.0 0.10 0.26 0.26 92 1004.3
20260506212205 58 195 4.0 16.0 0.10 0.26 0.26 92 1004.2
20260506211704 58 176 4.0 12.0 0.10 0.25 0.25 92 1004.2
20260506211203 58 197 5.0 12.0 0.11 0.25 0.25 92 1004.2
20260506210204 58 227 5.0 12.0 0.12 0.23 0.23 92 1004.4
20260506205704 58 168 2.0 10.0 0.11 0.22 0.22 92 1004.3
20260506204703 58 217 4.0 9.0 0.10 0.19 0.19 92 1004.5
20260506204204 58 188 3.0 8.0 0.09 0.18 0.18 92 1004.6
20260506203203 58 188 3.0 8.0 0.09 0.17 0.17 91 1004.6
20260506201704 59 208 3.0 12.0 0.07 0.15 0.15 91 1004.8
20260506201204 59 166 3.0 10.0 0.06 0.14 0.14 90 1004.9
20260506200704 59 178 2.0 9.0 0.05 0.12 0.12 91 1004.9
20260506200203 59 199 3.0 8.0 0.04 0.11 0.11 90 1004.8
20260506195704 60 220 2.0 12.0 0.04 0.11 0.11 90 1004.9
20260506195204 60 199 2.0 12.0 0.04 0.10 0.10 90 1004.9
20260506194703 60 125 2.0 12.0 0.03 0.09 0.09 90 1004.9
20260506194203 60 214 1.0 12.0 0.03 0.09 0.09 89 1005.0
20260506193704 60 173 2.0 12.0 0.02 0.08 0.08 89 1005.2
20260506193204 60 231 4.0 20.0 0.02 0.08 0.08 89 1005.2
20260506192704 60 188 6.0 14.0 0.03 0.08 0.08 88 1005.1
20260506191704 60 198 6.0 13.0 0.03 0.08 0.08 89 1005.1
20260506191203 60 205 5.0 10.0 0.04 0.08 0.08 89 1005.1
20260506190704 60 164 3.0 7.0 0.04 0.07 0.07 90 1005.1
20260506190204 60 207 7.0 15.0 0.04 0.07 0.07 88 1005.2
20260506185704 60 222 3.0 9.0 0.05 0.07 0.07 89 1005.2
20260506185203 60 201 4.0 10.0 0.04 0.06 0.06 89 1005.1
20260506184704 60 218 2.0 8.0 0.05 0.06 0.06 89 1005.0
20260506184204 60 181 2.0 8.0 0.06 0.06 0.06 88 1005.1
20260506183204 60 154 3.0 10.0 0.06 0.06 0.06 88 1005.4
20260506182703 61 157 3.0 12.0 0.05 0.05 0.05 87 1005.4
20260506182204 61 179 3.0 13.0 0.05 0.05 0.05 87 1005.6
20260506181704 61 216 2.0 9.0 0.05 0.05 0.05 87 1005.7
20260506181204 61 177 5.0 14.0 0.04 0.04 0.04 86 1005.7
20260506180704 61 219 4.0 10.0 0.03 0.03 0.03 85 1005.8
20260506180204 62 175 4.0 10.0 0.03 0.03 0.03 84 1006.0
20260506175703 62 203 5.0 12.0 0.02 0.02 0.02 83 1006.0
20260506175204 62 0 6.0 12.0 0.02 0.02 0.02 81 1006.1
20260506174704 63 223 6.0 12.0 0.01 0.01 0.01 78 1006.1
20260506174203 64 209 5.0 16.0 0.00 0.00 0.00 76 1006.2
20260506173204 66 214 3.0 10.0 0.00 0.00 0.00 71 1006.1
20260506172703 67 223 5.0 13.0 0.00 0.00 0.00 69 1006.1
20260506172203 67 218 9.0 17.0 0.00 0.00 0.00 66 1006.1
20260506171704 67 211 6.0 15.0 0.00 0.00 0.00 66 1005.9
20260506171204 68 225 7.0 16.0 0.00 0.00 0.00 65 1005.8
20260506170704 68 217 6.0 12.0 0.00 0.00 0.00 65 1005.8
20260506170205 68 217 5.0 16.0 0.00 0.00 0.00 65 1005.9
20260506165704 68 213 6.0 13.0 0.00 0.00 0.00 65 1005.9
20260506165204 68 203 6.0 12.0 0.00 0.00 0.00 65 1005.9
20260506164703 68 195 3.0 18.0 0.00 0.00 0.00 65 1006.0
20260506163704 68 248 3.0 12.0 0.00 0.00 0.00 65 1006.0
20260506163231 68 212 9.0 20.0 0.00 0.00 0.00 64 1006.0
20260506162212 68 207 7.0 17.0 0.00 0.00 0.00 64 1006.2
20260506161710 67 216 8.0 17.0 0.00 0.00 0.00 64 1006.4
20260506161208 67 233 5.0 17.0 0.00 0.00 0.00 64 1006.3
20260506160746 67 252 10.0 20.0 0.00 0.00 0.00 64 1006.4
20260506160203 67 225 10.0 21.0 0.00 0.00 0.00 64 1006.6
20260506155702 68 161 6.0 13.0 0.00 0.00 0.00 64 1006.7
20260506155203 67 253 5.0 17.0 0.00 0.00 0.00 64 1006.7
20260506154702 67 186 6.0 20.0 0.00 0.00 0.00 64 1006.7
20260506154202 67 203 9.0 15.0 0.00 0.00 0.00 64 1006.9
20260506153703 67 221 5.0 12.0 0.00 0.00 0.00 65 1006.7
20260506153204 67 193 6.0 18.0 0.00 0.00 0.00 65 1006.9
20260506152702 67 218 8.0 23.0 0.00 0.00 0.00 65 1006.9
20260506152202 67 198 10.0 20.0 0.00 0.00 0.00 65 1007.0
20260506151702 67 194 6.0 15.0 0.00 0.00 0.00 66 1007.1
20260506151204 67 226 3.0 9.0 0.00 0.00 0.00 67 1007.0
20260506150702 67 182 5.0 10.0 0.00 0.00 0.00 67 1007.1
20260506145703 67 221 5.0 12.0 0.00 0.00 0.00 67 1007.3
20260506145202 67 192 4.0 10.0 0.00 0.00 0.00 67 1007.3
20260506144702 67 175 5.0 14.0 0.00 0.00 0.00 68 1007.3
20260506144202 67 190 3.0 12.0 0.00 0.00 0.00 69 1007.2
20260506143702 67 206 5.0 14.0 0.00 0.00 0.00 69 1007.3
20260506142702 66 211 5.0 12.0 0.00 0.00 0.00 70 1007.4
20260506142203 66 208 6.0 14.0 0.00 0.00 0.00 69 1007.3
20260506141702 66 166 6.0 15.0 0.00 0.00 0.00 69 1007.3
20260506141202 66 187 3.0 12.0 0.00 0.00 0.00 70 1007.2
20260506140702 66 220 6.0 12.0 0.00 0.00 0.00 70 1007.1
20260506140203 66 183 5.0 9.0 0.00 0.00 0.00 71 1007.1
20260506135702 65 199 3.0 13.0 0.00 0.00 0.00 71 1007.0
20260506135203 65 237 5.0 10.0 0.00 0.00 0.00 72 1007.0
20260506134702 65 192 3.0 10.0 0.00 0.00 0.00 73 1006.8
20260506134203 64 155 2.0 8.0 0.00 0.00 0.00 74 1007.0
20260506133202 64 124 3.0 12.0 0.00 0.00 0.00 74 1007.1
20260506132703 64 115 2.0 12.0 0.00 0.00 0.00 75 1007.2
20260506132203 64 336 3.0 12.0 0.00 0.00 0.00 75 1007.3
20260506131703 63 199 4.0 8.0 0.00 0.00 0.00 75 1007.3
20260506131202 63 139 1.0 5.0 0.00 0.00 0.00 76 1007.4
20260506130702 63 203 7.0 10.0 0.00 0.00 0.00 76 1007.5
20260506130202 63 212 2.0 8.0 0.00 0.00 0.00 77 1007.6
20260506124704 62 188 5.0 12.0 0.00 0.00 0.00 77 1007.7
20260506124202 62 222 7.0 12.0 0.00 0.00 0.00 76 1007.7
20260506123702 62 160 4.0 14.0 0.00 0.00 0.00 77 1007.7
20260506123202 62 208 3.0 12.0 0.00 0.00 0.00 77 1007.7
20260506122202 62 207 6.0 14.0 0.00 0.00 0.00 77 1007.5
20260506121202 62 210 8.0 14.0 0.00 0.00 0.00 77 1007.3
20260506120703 61 218 8.0 15.0 0.00 0.00 0.00 78 1007.4
20260506120202 61 190 6.0 13.0 0.00 0.00 0.00 78 1007.6
20260506115702 61 210 6.0 13.0 0.00 0.00 0.00 78 1007.8
20260506115202 61 221 7.0 18.0 0.00 0.00 0.00 78 1007.7
20260506113703 60 152 6.0 13.0 0.00 0.00 0.00 79 1007.6
20260506113203 60 221 7.0 16.0 0.00 0.00 0.00 79 1007.8
20260506112702 60 197 9.0 17.0 0.00 0.00 0.00 79 1007.9
20260506112202 60 226 5.0 17.0 0.00 0.00 0.00 79 1008.0
20260506111703 60 193 8.0 18.0 0.00 0.00 0.00 79 1008.0
20260506111203 60 221 5.0 14.0 0.00 0.00 0.00 79 1007.9
20260506110203 60 213 5.0 10.0 0.00 0.00 0.00 80 1008.1
20260506105703 60 224 6.0 13.0 0.00 0.00 0.00 80 1008.0
20260506105202 60 218 7.0 14.0 0.00 0.00 0.00 79 1008.1
20260506104202 59 189 7.0 17.0 0.00 0.00 0.00 79 1007.8
20260506103703 59 211 7.0 20.0 0.00 0.00 0.00 80 1007.9
20260506103202 59 182 5.0 12.0 0.00 0.00 0.00 80 1008.0
20260506102702 59 214 6.0 12.0 0.00 0.00 0.00 80 1007.9
20260506102202 59 218 7.0 14.0 0.00 0.00 0.00 80 1007.9
20260506101702 59 182 5.0 10.0 0.00 0.00 0.00 80 1007.7
20260506101203 59 160 6.0 17.0 0.00 0.00 0.00 80 1007.8
20260506100703 59 221 5.0 17.0 0.00 0.00 0.00 80 1007.8
20260506100202 59 200 5.0 12.0 0.00 0.00 0.00 79 1007.8
20260506095702 59 193 4.0 10.0 0.00 0.00 0.00 79 1007.7
20260506094203 59 203 5.0 14.0 0.00 0.00 0.00 79 1007.4
20260506093203 59 231 7.0 12.0 0.00 0.00 0.00 79 1007.6
20260506092703 59 194 6.0 13.0 0.00 0.00 0.00 78 1007.7
20260506092202 59 222 8.0 15.0 0.00 0.00 0.00 78 1007.5
20260506091702 59 183 5.0 13.0 0.00 0.00 0.00 78 1007.4
20260506091202 59 195 8.0 16.0 0.00 0.00 0.00 78 1007.4
20260506090703 59 222 5.0 12.0 0.00 0.00 0.00 78 1007.6
20260506090203 59 226 6.0 15.0 0.00 0.00 0.00 78 1007.6
20260506085702 59 193 8.0 14.0 0.00 0.00 0.00 78 1007.6
20260506085202 59 214 9.0 17.0 0.00 0.00 0.00 78 1007.7
20260506083702 59 214 6.0 16.0 0.00 0.00 0.00 77 1007.7
20260506083203 59 234 9.0 16.0 0.00 0.00 0.00 77 1007.7
20260506082702 59 203 8.0 17.0 0.00 0.00 0.00 77 1007.7
20260506082202 59 201 6.0 18.0 0.00 0.00 0.00 76 1007.7
20260506081702 59 221 6.0 13.0 0.00 0.00 0.00 76 1007.7
20260506081202 59 226 7.0 16.0 0.00 0.00 0.00 76 1007.7
20260506080703 59 230 6.0 18.0 0.00 0.00 0.00 76 1007.7
20260506080202 59 203 6.0 15.0 0.00 0.00 0.00 76 1007.7
20260506073202 60 193 3.0 10.0 0.00 0.00 0.00 74 1007.9
20260506072703 60 217 5.0 12.0 0.00 0.00 0.00 73 1007.9
20260506072202 60 216 4.0 10.0 0.00 0.00 0.00 73 1007.8
20260506071702 60 225 5.0 10.0 0.00 0.00 0.00 73 1007.8
20260506071203 61 223 7.0 13.0 0.00 0.00 0.00 72 1007.8
20260506070702 61 223 3.0 10.0 0.00 0.00 0.00 72 1007.8
20260506070202 61 219 6.0 12.0 0.00 0.00 0.00 72 1007.7
20260506062202 62 196 7.0 14.0 0.00 0.00 0.00 69 1007.6
20260506061702 62 223 5.0 12.0 0.00 0.00 0.00 69 1007.5
20260506061203 62 223 7.0 13.0 0.00 0.00 0.00 68 1007.5
20260506060703 62 206 8.0 16.0 0.00 0.00 0.00 68 1007.5
20260506060203 62 226 4.0 13.0 0.00 0.00 0.00 68 1007.4
20260506051203 62 214 6.0 20.0 0.00 0.00 0.00 66 1007.7
20260506050203 62 213 5.0 17.0 0.00 0.00 0.00 66 1007.9
20260506044702 62 184 7.0 17.0 0.00 0.00 0.00 66 1008.0
20260506044203 62 196 5.0 13.0 0.00 0.00 0.00 65 1008.0
20260506043702 62 220 6.0 14.0 0.00 0.00 0.00 65 1008.0
20260506043203 62 212 6.0 15.0 0.00 0.00 0.00 65 1008.0
20260506042703 62 227 7.0 13.0 0.00 0.00 0.00 65 1008.0
20260506042202 62 211 5.0 14.0 0.00 0.00 0.00 65 1008.1
20260506041703 62 220 6.0 14.0 0.00 0.00 0.00 65 1008.1
20260506041202 62 224 6.0 15.0 0.00 0.00 0.00 64 1008.2
20260506040712 62 197 7.0 14.0 0.00 0.00 0.00 64 1008.1
20260506035203 62 225 5.0 13.0 0.00 0.00 0.00 64 1008.1
20260506034703 62 226 5.0 13.0 0.00 0.00 0.00 64 1008.1
20260506033702 62 234 7.0 16.0 0.00 0.00 0.00 63 1008.1
20260506033203 63 187 6.0 15.0 0.00 0.00 0.00 62 1008.2
20260506032703 63 216 9.0 16.0 0.00 0.00 0.00 62 1008.1
20260506032203 63 220 6.0 14.0 0.00 0.00 0.00 62 1008.1
20260506031702 63 208 9.0 20.0 0.00 0.00 0.00 62 1008.0
20260506030703 63 189 5.0 17.0 0.00 0.00 0.00 61 1008.1
20260506030203 63 211 8.0 13.0 0.00 0.00 0.00 61 1008.0
20260506025703 64 189 5.0 10.0 0.00 0.00 0.00 61 1007.9
20260506025203 64 233 6.0 15.0 0.00 0.00 0.00 60 1007.9
20260506024702 64 207 5.0 15.0 0.00 0.00 0.00 60 1007.9
20260506024203 64 215 7.0 15.0 0.00 0.00 0.00 60 1007.9
20260506023703 64 202 7.0 17.0 0.00 0.00 0.00 60 1007.9
20260506023203 64 206 8.0 15.0 0.00 0.00 0.00 59 1007.8
20260506022703 64 219 6.0 17.0 0.00 0.00 0.00 60 1007.8
20260506021702 65 213 5.0 13.0 0.00 0.00 0.00 59 1007.8
20260506020702 65 226 5.0 12.0 0.00 0.00 0.00 58 1007.7
20260506020202 65 195 5.0 12.0 0.00 0.00 0.00 58 1007.8
20260506015702 65 212 7.0 12.0 0.00 0.00 0.00 58 1007.8
20260506015202 65 191 5.0 9.0 0.00 0.00 0.00 58 1007.8
20260506014703 66 225 4.0 9.0 0.00 0.00 0.00 58 1007.8
20260506014202 66 224 2.0 8.0 0.00 0.00 0.00 57 1007.8
20260506013703 66 204 3.0 10.0 0.00 0.00 0.00 57 1007.7
20260506013203 66 206 3.0 7.0 0.00 0.00 0.00 56 1007.7
20260506012203 67 215 5.0 9.0 0.00 0.00 0.00 55 1007.6
20260506011702 67 199 3.0 12.0 0.00 0.00 0.00 55 1007.7
20260506011203 67 216 3.0 12.0 0.00 0.00 0.00 55 1007.6
20260506010203 67 277 3.0 9.0 0.00 0.00 0.00 54 1007.4
20260506005703 68 225 7.0 17.0 0.00 0.00 0.00 54 1007.4
20260506005203 68 221 7.0 22.0 0.00 0.00 0.00 53 1007.2
20260506004203 68 193 5.0 9.0 0.00 0.00 0.00 52 1007.0
20260506003702 69 230 6.0 16.0 0.00 0.00 0.00 52 1007.0
20260506003203 69 195 7.0 15.0 0.00 0.00 0.00 52 1007.0
20260506002704 69 207 9.0 20.0 0.00 0.00 0.00 51 1006.9
20260506001702 69 194 5.0 12.0 0.00 0.00 0.00 51 1006.6
20260506001203 69 187 5.0 20.0 0.00 0.00 0.00 51 1006.5
20260506000703 70 191 3.0 9.0 0.00 0.00 0.00 50 1006.4